Date String (YYYY-MM-DD hh:mm:ss) UTC,Instrument flags,absolute air pressure of the measurement (hPa),sample flow rate (lpm),inlet stack bypass flow (lpm),air temperature of the measurement (°C),ambient temperature measured by the external sensor (°C),aerosol sample conditioner tube jacket temperature (°C),OPC LED temperature (°C),internal box temperature (°C),relative humidity of the measurement (%),span deviation,mass concentration of particles derived from Lorenz-Mie calculation of OPC scattering (μg/m³),mass concentration of particles derived from Lorenz-Mie calculation of OPC scattering (μg/m³),mass concentration of particles derived from Lorenz-Mie calculation of OPC scattering (μg/m³)
DateTimeUTC,F1_M11,P_M11,Q1_M11,Q2_M11,T1_M11,T2_M11,T3_M11,T4_M11,T5_M11,U1_M11,ZSPAN_M11,X0_M11,X2_M11,X1_M11
2024-01-13 09:00:00,SystemResetWarning,0819.1,5.01,000.00,019.0,018.5,000.0,027.4,020.0,4.8,0003.5,0007.84,0004.85,0004.43
2024-01-13 09:01:00,SystemResetWarning,0819.2,5.01,000.00,019.0,018.2,000.0,027.4,020.0,4.8,0003.6,0007.77,0004.79,0004.40
2024-01-13 09:02:00,SystemResetWarning,0819.3,5.00,000.00,019.0,018.0,000.0,027.4,020.0,4.8,0003.7,0007.74,0004.77,0004.37
2024-01-13 09:03:00,SystemResetWarning,0819.4,5.00,000.00,019.0,017.9,000.0,027.4,020.2,4.8,0003.7,0007.71,0004.78,0004.36
2024-01-13 09:04:00,SystemResetWarning,0819.4,5.01,000.00,019.0,018.4,000.0,027.4,020.6,4.7,0003.0,0008.02,0004.75,0004.33
2024-01-13 09:05:00,SystemResetWarning,0819.3,5.00,000.00,019.2,019.1,000.0,027.4,021.0,4.7,0003.0,0008.56,0004.74,0004.31
2024-01-13 09:06:00,SystemResetWarning,0819.3,5.00,000.00,019.3,019.3,000.0,027.4,020.7,4.7,0002.7,0008.60,0004.70,0004.28
2024-01-13 09:07:00,SystemResetWarning,0819.2,4.99,000.00,019.2,019.0,000.0,027.4,020.2,4.7,0002.5,0008.57,0004.67,0004.24
2024-01-13 09:08:00,SystemResetWarning,0819.4,5.00,000.00,019.1,018.6,000.0,027.4,020.0,4.7,0002.9,0008.76,0004.62,0004.19
2024-01-13 09:09:00,SystemResetWarning,0819.3,5.01,000.00,019.1,018.3,000.0,027.4,020.0,4.8,0003.5,0009.38,0004.62,0004.17
2024-01-13 09:10:00,SystemResetWarning,0819.0,5.00,000.00,019.0,018.1,000.0,027.5,020.0,4.8,0002.5,0009.35,0004.60,0004.15
2024-01-13 09:11:00,SystemResetWarning,0819.1,5.00,000.00,019.0,018.0,000.0,027.4,020.2,4.8,0000.0,0009.34,0004.58,0004.12
2024-01-13 09:12:00,SystemResetWarning,0819.1,5.01,000.00,019.1,018.4,000.0,027.4,020.6,4.8,0000.0,0009.33,0004.56,0004.10
2024-01-13 09:13:00,SystemResetWarning,0819.0,4.99,000.00,019.2,019.0,000.0,027.4,021.0,4.7,0000.0,0009.32,0004.54,0004.09
2024-01-13 09:14:00,SystemResetWarning,0819.3,5.00,000.00,019.3,019.2,000.0,027.4,020.7,4.7,0000.0,0009.26,0004.50,0004.07
2024-01-13 09:15:00,SystemResetWarning,0819.2,4.99,000.00,019.2,018.9,000.0,027.4,020.1,4.7,0000.0,0009.03,0004.49,0004.06
2024-01-13 09:16:00,SystemResetWarning,0819.2,5.00,000.00,019.1,018.6,000.0,027.4,020.0,4.7,0000.0,0008.59,0004.47,0004.06
2024-01-13 09:17:00,SystemResetWarning,0819.3,5.00,000.00,019.0,018.3,000.0,027.4,020.0,4.7,0000.0,0008.45,0004.49,0004.06
2024-01-13 09:18:00,SystemResetWarning,0819.4,5.00,000.00,019.0,018.0,000.0,027.5,020.0,4.7,0000.0,0008.67,0004.52,0004.08
2024-01-13 09:19:00,SystemResetWarning,0819.3,5.00,000.00,019.0,017.9,000.0,027.5,020.1,4.7,0000.0,0008.68,0004.53,0004.09
2024-01-13 09:20:00,SystemResetWarning,0819.1,5.02,000.00,019.1,018.4,000.0,027.4,020.6,4.7,0000.0,0007.78,0004.50,0004.08
2024-01-13 09:21:00,SystemResetWarning,0819.0,5.00,000.00,019.2,019.1,000.0,027.4,020.9,4.7,0000.0,0007.80,0004.52,0004.10
2024-01-13 09:22:00,SystemResetWarning,0819.2,4.99,000.00,019.3,019.3,000.0,027.4,020.7,4.6,0003.0,0007.76,0004.49,0004.10
2024-01-13 09:23:00,SystemResetWarning,0818.9,4.99,000.00,019.2,019.0,000.0,027.4,020.1,4.6,0004.3,0007.67,0004.48,0004.09
2024-01-13 09:24:00,SystemResetWarning,0819.2,5.00,000.00,019.1,018.6,000.0,027.4,020.0,4.7,0004.9,0007.60,0004.46,0004.09
2024-01-13 09:25:00,SystemResetWarning,0819.1,5.01,000.00,019.0,018.3,000.0,027.5,020.0,4.7,0004.7,0007.59,0004.45,0004.09
2024-01-13 09:26:00,SystemResetWarning,0819.4,4.99,000.00,019.0,018.1,000.0,027.5,020.0,4.6,0004.1,0007.63,0004.45,0004.06
2024-01-13 09:27:00,SystemResetWarning,0819.4,4.99,000.00,019.0,018.0,000.0,027.5,020.2,4.6,0003.7,0007.47,0004.45,0004.05
2024-01-13 09:28:00,SystemResetWarning,0819.3,5.00,000.00,019.1,018.4,000.0,027.4,020.6,4.6,0003.7,0007.36,0004.42,0004.04
2024-01-13 09:29:00,SystemResetWarning,0819.4,5.02,000.00,019.2,019.1,000.0,027.4,020.9,4.6,0003.9,0007.04,0004.40,0004.02
2024-01-13 09:30:00,SystemResetWarning,0819.5,5.00,000.00,019.2,019.3,000.0,027.4,020.7,4.6,0003.6,0006.75,0004.35,0004.00
2024-01-13 09:31:00,SystemResetWarning,0819.5,4.99,000.00,019.2,018.9,000.0,027.4,020.1,4.6,0003.9,0006.82,0004.33,0004.00
2024-01-13 09:32:00,SystemResetWarning,0819.8,4.99,000.00,019.1,018.6,000.0,027.4,020.0,4.6,0004.4,0007.07,0004.31,0003.98
2024-01-13 09:33:00,SystemResetWarning,0819.9,5.01,000.00,019.0,018.3,000.0,027.5,020.0,4.6,0001.6,0007.15,0004.32,0003.98
2024-01-13 09:34:00,SystemResetWarning,0819.6,5.00,000.00,019.0,018.0,000.0,027.5,020.0,4.6,0000.5,0007.15,0004.31,0003.98
2024-01-13 09:35:00,SystemResetWarning,0819.5,5.00,000.00,018.9,017.8,000.0,027.5,020.0,4.6,0001.0,0007.19,0004.33,0003.98
2024-01-13 09:36:00,SystemResetWarning,0819.4,5.01,000.00,019.0,018.0,000.0,027.4,020.3,4.6,0000.0,0007.11,0004.31,0003.98
2024-01-13 09:37:00,SystemResetWarning,0819.5,5.02,000.00,019.1,018.6,000.0,027.4,020.7,4.6,0000.0,0007.04,0004.30,0004.00
2024-01-13 09:38:00,SystemResetWarning,0819.5,4.99,000.00,019.2,019.2,000.0,027.4,020.9,4.5,0000.0,0007.07,0004.30,0004.02
2024-01-13 09:39:00,SystemResetWarning,0819.5,4.98,000.00,019.2,019.1,000.0,027.4,020.4,4.5,0000.0,0007.00,0004.30,0004.02
2024-01-13 09:40:00,SystemResetWarning,0819.9,5.01,000.00,019.1,018.7,000.0,027.4,020.0,4.5,0000.0,0006.98,0004.29,0004.02
2024-01-13 09:41:00,SystemResetWarning,0819.8,5.01,000.00,019.1,018.4,000.0,027.4,020.0,4.5,0001.2,0007.04,0004.31,0004.04
2024-01-13 09:42:00,SystemResetWarning,0819.8,5.00,000.00,019.0,018.2,000.0,027.4,020.0,4.5,0000.0,0007.05,0004.33,0004.05
2024-01-13 09:43:00,SystemResetWarning,0820.0,4.99,000.00,019.0,017.9,000.0,027.5,020.0,4.5,0000.0,0006.91,0004.33,0004.06
2024-01-13 09:44:00,SystemResetWarning,0820.2,5.01,000.00,019.0,018.1,000.0,027.4,020.3,4.5,-000.0,0007.14,0004.34,0004.07
2024-01-13 09:45:00,SystemResetWarning,0820.1,5.00,000.00,019.1,018.7,000.0,027.4,020.8,4.5,-000.1,0007.10,0004.34,0004.07
2024-01-13 09:46:00,SystemResetWarning,0819.9,5.00,000.00,019.2,019.3,000.0,027.4,020.9,4.5,-000.3,0007.29,0004.37,0004.06
2024-01-13 09:47:00,SystemResetWarning,0819.9,5.00,000.00,019.2,019.1,000.0,027.4,020.4,4.5,-000.3,0007.32,0004.38,0004.06
2024-01-13 09:48:00,SystemResetWarning,0820.2,4.99,000.00,019.1,018.8,000.0,027.4,020.0,4.5,-000.2,0007.31,0004.37,0004.04
2024-01-13 09:49:00,SystemResetWarning,0820.2,5.00,000.00,019.0,018.4,000.0,027.4,020.0,4.5,-000.2,0007.21,0004.34,0004.02
2024-01-13 09:50:00,SystemResetWarning,0820.0,5.00,000.00,019.0,018.2,000.0,027.4,020.0,4.5,0000.7,0007.31,0004.34,0004.01
2024-01-13 09:51:00,SystemResetWarning,0819.9,5.00,000.00,019.0,017.9,000.0,027.5,020.0,4.5,0001.2,0007.60,0004.31,0004.00
2024-01-13 09:52:00,SystemResetWarning,0820.0,5.01,000.00,019.0,018.1,000.0,027.4,020.3,4.5,0000.9,0008.15,0004.33,0003.99
2024-01-13 09:53:00,SystemResetWarning,0819.9,5.00,000.00,019.1,018.7,000.0,027.4,020.7,4.5,0001.6,0008.23,0004.33,0003.98
2024-01-13 09:54:00,SystemResetWarning,0819.7,5.00,000.00,019.2,019.3,000.0,027.4,020.9,4.5,0001.7,0008.15,0004.31,0003.97
2024-01-13 09:55:00,SystemResetWarning,0819.6,4.98,000.00,019.2,019.1,000.0,027.4,020.4,4.5,0001.9,0008.09,0004.32,0003.95
2024-01-13 09:56:00,SystemResetWarning,0819.5,5.00,000.00,019.1,018.8,000.0,027.4,020.0,4.5,0002.8,0008.15,0004.34,0003.94
2024-01-13 09:57:00,SystemResetWarning,0819.5,5.00,000.00,019.0,018.4,000.0,027.4,020.0,4.5,0003.8,0008.04,0004.31,0003.95
2024-01-13 09:58:00,SystemResetWarning,0819.7,5.00,000.00,019.0,018.1,000.0,027.5,020.0,4.5,0003.8,0008.03,0004.31,0003.94
2024-01-13 09:59:00,SystemResetWarning,0819.8,5.00,000.00,019.0,017.9,000.0,027.5,020.0,4.5,0004.1,0008.05,0004.32,0003.94
